User: anonymous   Login
Location: Heidgraben
(53.7081°N, 9.6576°E)
Time: 10:26:18
(UTC+00:00)
Language:

GP-B - Orbit

View from above orbital plane
View from above orbital plane
View from above satellite
View from above satellite

Ground track
Ground track

The orbit data is extracted from the following two-line orbital elements,

1 28230U 04014A   20271.81002284  .00000131  00000-0  15613-4 0  9996
2 28230  89.8101  96.3216 0002393 105.3255 254.8233 14.78750806886217
Epoch (UTC): 27 September 2020 19:26:25
Eccentricity: 0.0002393
inclination: 89.8101°
perigee height: 631 km
apogee height: 635 km
right ascension of ascending node: 96.3216°
argument of perigee: 105.3255°
revolutions per day: 14.78750806
mean anomaly at epoch: 254.8233°
orbit number at epoch: 88621

The dashed part of the orbit path shows where the satellite is in the earth's shadow,  

DLR